TimeEST,TemperatureF,Dew PointF,Humidity,Sea Level PressureIn,VisibilityMPH,Wind Direction,Wind SpeedMPH,Gust SpeedMPH,PrecipitationIn,Events,Conditions,WindDirDegrees,DateUTC
12:15 AM,41.0,41.0,100,30.08,2.5,Calm,Calm,-,N/A,,Overcast,0,2013-01-16 05:15:00
12:35 AM,41.0,41.0,100,30.07,2.0,Calm,Calm,-,N/A,,Overcast,0,2013-01-16 05:35:00
12:55 AM,41.0,41.0,100,30.07,2.5,NNE,3.5,-,N/A,,Overcast,30,2013-01-16 05:55:00
1:15 AM,41.0,41.0,100,30.08,1.8,Calm,Calm,-,N/A,,Overcast,0,2013-01-16 06:15:00
1:35 AM,41.0,41.0,100,30.08,1.8,Calm,Calm,-,N/A,Rain,Light Rain,0,2013-01-16 06:35:00
1:55 AM,41.0,41.0,100,30.07,2.0,North,4.6,-,N/A,Rain,Light Rain,10,2013-01-16 06:55:00
2:15 AM,41.0,41.0,100,30.08,2.0,NNW,4.6,-,N/A,,Overcast,340,2013-01-16 07:15:00
2:35 AM,41.0,41.0,100,30.08,2.0,North,5.8,-,N/A,,Overcast,350,2013-01-16 07:35:00
2:55 AM,41.0,41.0,100,30.08,2.0,NNW,3.5,-,N/A,,Overcast,340,2013-01-16 07:55:00
3:15 AM,41.0,41.0,100,30.07,2.0,NNW,3.5,-,N/A,,Overcast,340,2013-01-16 08:15:00
3:35 AM,41.0,41.0,100,30.08,2.0,North,3.5,-,N/A,,Overcast,360,2013-01-16 08:35:00
3:55 AM,39.2,39.2,100,30.07,2.5,North,8.1,-,N/A,,Overcast,360,2013-01-16 08:55:00
4:15 AM,39.2,39.2,100,30.07,2.5,North,5.8,-,N/A,,Drizzle,350,2013-01-16 09:15:00
4:35 AM,37.4,37.4,100,30.06,3.0,North,4.6,-,N/A,,Heavy Drizzle,360,2013-01-16 09:35:00
4:55 AM,37.4,37.4,100,30.06,5.0,North,5.8,-,0.01,Rain,Rain,360,2013-01-16 09:55:00
5:15 AM,37.4,37.4,100,30.05,7.0,North,4.6,-,N/A,,Drizzle,360,2013-01-16 10:15:00
5:35 AM,37.4,37.4,100,30.04,10.0,Calm,Calm,-,N/A,,Overcast,0,2013-01-16 10:35:00
5:55 AM,37.4,37.4,100,30.04,7.0,Calm,Calm,-,N/A,,Drizzle,0,2013-01-16 10:55:00
6:15 AM,37.4,37.4,100,30.04,7.0,Calm,Calm,-,N/A,,Light Drizzle,0,2013-01-16 11:15:00
6:35 AM,37.4,37.4,100,30.04,10.0,North,3.5,-,N/A,Rain,Light Rain,10,2013-01-16 11:35:00
6:55 AM,37.4,37.4,100,30.05,10.0,North,3.5,-,N/A,,Overcast,10,2013-01-16 11:55:00
7:15 AM,39.2,39.2,100,30.05,10.0,Calm,Calm,-,N/A,,Overcast,0,2013-01-16 12:15:00
7:35 AM,39.2,39.2,100,30.05,10.0,Calm,Calm,-,N/A,,Overcast,0,2013-01-16 12:35:00
7:55 AM,39.2,39.2,100,30.05,10.0,Calm,Calm,-,N/A,,Drizzle,0,2013-01-16 12:55:00
8:15 AM,39.2,39.2,100,30.05,4.0,ESE,3.5,-,0.02,Rain,Light Rain,120,2013-01-16 13:15:00
8:35 AM,39.2,39.2,100,30.06,10.0,Calm,Calm,-,0.02,,Overcast,0,2013-01-16 13:35:00
8:55 AM,39.2,39.2,100,30.06,3.0,Calm,Calm,-,0.02,,Overcast,0,2013-01-16 13:55:00
9:15 AM,41.0,41.0,100,30.06,7.0,Calm,Calm,-,N/A,,Light Drizzle,0,2013-01-16 14:15:00
9:35 AM,41.0,41.0,100,30.06,10.0,Calm,Calm,-,N/A,,Overcast,0,2013-01-16 14:35:00
9:55 AM,41.0,41.0,100,30.06,10.0,Calm,Calm,-,N/A,,Light Drizzle,0,2013-01-16 14:55:00
10:15 AM,41.0,41.0,100,30.07,5.0,Calm,Calm,-,0.01,Rain,Light Rain,0,2013-01-16 15:15:00
10:35 AM,41.0,41.0,100,30.08,5.0,NW,4.6,-,0.02,,Heavy Drizzle,320,2013-01-16 15:35:00
10:55 AM,41.0,41.0,100,30.08,5.0,NNW,8.1,-,0.03,Rain,Light Rain,330,2013-01-16 15:55:00
11:15 AM,41.0,41.0,100,30.09,5.0,NNW,3.5,-,0.02,,Heavy Drizzle,330,2013-01-16 16:15:00
11:35 AM,41.0,41.0,100,30.07,7.0,North,3.5,-,0.03,,Drizzle,360,2013-01-16 16:35:00
11:55 AM,41.0,41.0,100,30.04,4.0,North,-9999.0,-,0.04,Rain,Rain,0,2013-01-16 16:55:00
12:15 PM,41.0,41.0,100,30.04,3.0,Calm,Calm,-,0.04,Rain,Rain,0,2013-01-16 17:15:00
12:35 PM,41.0,41.0,100,30.03,4.0,North,5.8,-,0.07,Rain,Heavy Rain,360,2013-01-16 17:35:00
12:55 PM,41.0,41.0,100,30.02,4.0,NNE,3.5,-,0.08,Rain,Rain,20,2013-01-16 17:55:00
1:15 PM,42.8,42.8,100,30.00,10.0,Calm,Calm,-,N/A,,Light Drizzle,0,2013-01-16 18:15:00
1:35 PM,42.8,42.8,100,30.00,10.0,SSE,3.5,-,N/A,Rain,Light Rain,160,2013-01-16 18:35:00
1:55 PM,42.8,42.8,100,29.99,10.0,SE,5.8,-,N/A,,Overcast,140,2013-01-16 18:55:00
2:15 PM,42.8,42.8,100,29.98,10.0,South,6.9,-,N/A,,Overcast,170,2013-01-16 19:15:00
2:35 PM,44.6,44.6,100,29.98,10.0,South,6.9,-,N/A,,Overcast,180,2013-01-16 19:35:00
2:55 PM,44.6,44.6,100,29.98,10.0,South,5.8,-,N/A,,Overcast,170,2013-01-16 19:55:00
3:15 PM,44.6,44.6,100,29.99,10.0,SSW,3.5,-,N/A,,Overcast,200,2013-01-16 20:15:00
3:35 PM,46.4,46.4,100,29.99,10.0,SSW,4.6,-,N/A,Rain,Light Rain,200,2013-01-16 20:35:00
3:55 PM,46.4,46.4,100,30.00,10.0,South,3.5,-,N/A,Rain,Light Rain,190,2013-01-16 20:55:00
4:15 PM,46.4,46.4,100,29.99,10.0,South,4.6,-,N/A,,Overcast,180,2013-01-16 21:15:00
4:35 PM,46.4,46.4,100,30.00,10.0,Calm,Calm,-,N/A,,Overcast,0,2013-01-16 21:35:00
4:55 PM,46.4,46.4,100,29.99,10.0,Calm,Calm,-,N/A,,Overcast,0,2013-01-16 21:55:00
5:15 PM,46.4,46.4,100,30.00,10.0,Calm,Calm,-,N/A,,Overcast,0,2013-01-16 22:15:00
5:35 PM,46.4,46.4,100,30.01,10.0,Calm,Calm,-,N/A,,Overcast,0,2013-01-16 22:35:00
5:55 PM,46.4,46.4,100,30.00,10.0,Calm,Calm,-,N/A,,Overcast,0,2013-01-16 22:55:00
6:15 PM,46.4,46.4,100,30.00,10.0,Calm,Calm,-,N/A,,Overcast,0,2013-01-16 23:15:00
6:35 PM,46.4,46.4,100,30.00,10.0,Calm,Calm,-,N/A,,Overcast,0,2013-01-16 23:35:00
6:55 PM,46.4,46.4,100,30.00,10.0,Calm,Calm,-,N/A,,Overcast,0,2013-01-16 23:55:00
7:15 PM,46.4,46.4,100,30.01,7.0,Calm,Calm,-,N/A,,Overcast,0,2013-01-17 00:15:00
7:35 PM,46.4,46.4,100,30.02,4.0,West,4.6,-,N/A,,Overcast,260,2013-01-17 00:35:00
7:55 PM,46.4,46.4,100,30.00,10.0,WSW,3.5,-,N/A,,Overcast,240,2013-01-17 00:55:00
8:15 PM,46.4,46.4,100,30.00,5.0,Calm,Calm,-,N/A,,Overcast,0,2013-01-17 01:15:00
8:35 PM,46.4,46.4,100,30.01,7.0,Calm,Calm,-,N/A,,Overcast,0,2013-01-17 01:35:00
8:55 PM,46.4,46.4,100,30.01,5.0,SW,3.5,-,N/A,,Overcast,230,2013-01-17 01:55:00
9:15 PM,46.4,46.4,100,30.00,4.0,Calm,Calm,-,N/A,,Overcast,0,2013-01-17 02:15:00
9:35 PM,46.4,46.4,100,30.00,5.0,Calm,Calm,-,N/A,,Overcast,0,2013-01-17 02:35:00
9:55 PM,46.4,46.4,100,30.00,5.0,Calm,Calm,-,N/A,,Overcast,0,2013-01-17 02:55:00
10:15 PM,46.4,46.4,100,29.99,5.0,Calm,Calm,-,N/A,,Light Drizzle,0,2013-01-17 03:15:00
10:35 PM,46.4,46.4,100,29.99,5.0,Calm,Calm,-,N/A,Rain,Rain,0,2013-01-17 03:35:00
10:55 PM,46.4,46.4,100,29.98,5.0,Calm,Calm,-,N/A,,Overcast,0,2013-01-17 03:55:00
11:15 PM,46.4,46.4,100,29.97,5.0,Calm,Calm,-,N/A,,Overcast,0,2013-01-17 04:15:00
11:35 PM,48.2,48.2,100,29.99,7.0,Calm,Calm,-,N/A,Rain,Rain,0,2013-01-17 04:35:00
11:55 PM,48.2,48.2,100,29.98,5.0,Calm,Calm,-,N/A,Rain,Heavy Rain,0,2013-01-17 04:55:00